Hayward, WI

11:39 AM CST on November 18, 2017 (GMT -0600)
Sawyer County

Weather History for KHYR - November, 2011

Change the Weather History Date:

Saturday, November 12, 2011

  Actual Average Record
Temperature  
Mean Temperature 42 °F -  
Max Temperature 63 °F 31 °F 63 °F (2011)
Min Temperature 21 °F 9 °F -14 °F (1966)
Degree Days  
Heating Degree Days 23    
Moisture  
Dew Point 27 °F    
Average Humidity 60    
Maximum Humidity 92    
Minimum Humidity 22    
Precipitation  
Precipitation 0.00 in - - ()
Sea Level Pressure  
Sea Level Pressure 29.48 in    
Wind  
Wind Speed 3 mph (South)    
Max Wind Speed 14 mph    
Max Gust Speed 21 mph    
Visibility 10 miles    
Events      
Averages and records for this station are not official NWS values.
T = Trace of Precipitation, MM = Missing Value Source: NWS Daily Summary

Daily Weather History Graph

Daily Weather History Graph

Search for Another Location

Airport or City:

Trip Planner

Search our weather history database for the weather conditions in past years. The results will help you decide how hot, cold, wet, or windy it might be!

Date:

Astronomy

Nov. 12, 2011 Rise Set
Actual Time 7:01 AM CST 4:37 PM CST
Civil Twilight 6:29 AM CST 5:09 PM CST
Nautical Twilight 5:53 AM CST 5:45 PM CST
Astronomical Twilight 5:18 AM CST 6:20 PM CST
Moon 5:47 PM CST (11/12) 8:50 AM CST (11/12)
Length of Visible Light 10h 40m
Length of Day
9h 35m
Full, 97% of the Moon is Illuminated
Nov 12
Full
Nov 18
Last Quarter
Nov 25
New
Dec 2
First Quarter
Dec 10
Full

Hourly Weather History & Observations

Time (CST) Temp. Windchill Dew Point Humidity Pressure Visibility Wind Dir Wind Speed Gust Speed Precip Events Conditions
12:53 AM 26.1 °F - 23.0 °F 88% 29.61 in 10.0 mi Calm Calm - N/A   Partly Cloudy
1:53 AM 27.0 °F - 24.1 °F 89% 29.60 in 10.0 mi Calm Calm - N/A   Clear
2:53 AM 25.0 °F - 21.9 °F 88% 29.60 in 10.0 mi Calm Calm - N/A   Clear
3:53 AM 24.1 °F - 21.0 °F 88% 29.59 in 10.0 mi Calm Calm - N/A   Clear
4:53 AM 23.0 °F - 21.0 °F 92% 29.60 in 10.0 mi Calm Calm - N/A   Clear
5:53 AM 21.9 °F - 19.9 °F 92% 29.61 in 10.0 mi Calm Calm - N/A   Clear
6:53 AM 21.0 °F - 18.0 °F 88% 29.61 in 10.0 mi Calm Calm - N/A   Clear
7:53 AM 26.1 °F - 24.1 °F 92% 29.60 in 10.0 mi Calm Calm - N/A   Clear
8:53 AM 39.0 °F - 30.0 °F 70% 29.59 in 10.0 mi Calm Calm - N/A   Clear
9:53 AM 45.0 °F 41.8 °F 28.9 °F 53% 29.58 in 10.0 mi South 5.8 mph - N/A   Clear
10:53 AM 52.0 °F - 28.9 °F 41% 29.56 in 10.0 mi South 8.1 mph - N/A   Clear
11:53 AM 57.0 °F - 28.0 °F 33% 29.54 in 10.0 mi SSW 6.9 mph 17.3 mph N/A   Clear
12:53 PM 59.0 °F - 28.0 °F 31% 29.51 in 10.0 mi South 5.8 mph - N/A   Clear
1:53 PM 63.0 °F - 23.0 °F 22% 29.47 in 10.0 mi South 9.2 mph 18.4 mph N/A   Clear
2:53 PM 62.1 °F - 23.0 °F 22% 29.46 in 10.0 mi SSW 8.1 mph 17.3 mph N/A   Clear
3:53 PM 57.0 °F - 25.0 °F 29% 29.44 in 10.0 mi South 5.8 mph - N/A   Clear
4:53 PM 54.0 °F - 26.1 °F 34% 29.42 in 10.0 mi South 9.2 mph - N/A   Clear
5:53 PM 53.1 °F - 27.0 °F 37% 29.38 in 10.0 mi SSE 8.1 mph - N/A   Clear
6:53 PM 52.0 °F - 28.9 °F 41% 29.37 in 10.0 mi South 13.8 mph 20.7 mph N/A   Clear
7:53 PM 50.0 °F - 32.0 °F 50% 29.37 in 10.0 mi South 12.7 mph - N/A   Clear
8:53 PM 50.0 °F - 35.1 °F 57% 29.33 in 10.0 mi South 11.5 mph 19.6 mph N/A   Clear
9:53 PM 48.9 °F - 36.0 °F 61% 29.30 in 10.0 mi South 9.2 mph - N/A   Clear
10:53 PM 46.9 °F - 36.0 °F 66% 29.26 in 10.0 mi South 8.1 mph - N/A   Clear
11:53 PM 46.0 °F 41.9 °F 36.0 °F 68% 29.24 in 10.0 mi South 8.1 mph - N/A   Clear